Skip Page Navigation
NASA JPL Caltech
NASA Logo - Jet Propulsion Laboratory + View the NASA Portal
+ Near-Earth Object (NEO) Program
Search JPL
JPL Home Earth Solar System Stars & Galaxies Technology
JPL Solar System Dynamics
BODIES ORBITS EPHEMERIDES TOOLS PHYSICAL DATA DISCOVERY FAQ SITE MAP
JPL Small-Body Database Browser
Search: [ help ]  
168P/Hergenrother
Classification: Jupiter-family Comet          SPK-ID: 1000242
Ephemeris | Orbit Diagram | Orbital Elements | Physical Parameters | Close-Approach Data ]

[ hide orbit diagram ]
Orbit Diagram
Note: Make sure you have Java enabled on your browser to see the applet. This applet is provided as a 3D orbit visualization tool. The applet was implemented using 2-body methods, and hence should not be used for determining accurate long-term trajectories (over several years or decades) or planetary encounter circumstances. For accurate long-term ephemerides, please instead use our Horizons system.
Orbit Viewer

Additional Notes: the orbits shown in the applet are color coded. The planets are white lines, and the asteroid/comet is a blue line. The bright white line indicates the portion of the orbit that is above the ecliptic plane, and the darker portion is below the ecliptic plane. Likewise for the asteroid/comet orbit, the light blue indicates the portion above the ecliptic plane, and the dark blue the portion below the ecliptic plane.

Orbit Viewer applet originally written and kindly provided by Osamu Ajiki (AstroArts), and further modified by Ron Baalke (JPL).


Orbital Elements at Epoch 2456364.5 (2013-Mar-13.0) TDB
Reference: JPL 54 (heliocentric ecliptic J2000)
 Element Value Uncertainty (1-sigma)   Units 
e .609558895880292 9.2199e-08  
a 3.623703022347536 2.495e-07 AU
q 1.414842609047295 4.0546e-07 AU
i 21.927923150458 1.067e-05 deg
node 356.4566376041315 2.4664e-05 deg
peri 13.95118353211078 7.8838e-05 deg
M 23.152291992926 1.3438e-05 deg
tp 2456202.461276046711
(2012-Oct-01.96127605)
8.3182e-05 JED
period 2519.575195449657
6.90
0.00026022
7.124e-07
d
yr
n .1428812288079985 1.4757e-08 deg/d
Q 5.832563435647778 4.0159e-07 AU

Additional Model Parameters
 Parameter Value Uncertainty (1-sigma) 
A1 [EST] 2.658667734548654E-8 1.313E-10
A2 [EST] 2.372443532726665E-9 7.827E-13
A3 [EST] -1.254041926487453E-9 7.304E-11
  Orbit Determination Parameters
   # obs. used (total)      3336  
   data-arc span      5193 days (14.22 yr)  
   first obs. used      1998-11-21  
   last obs. used      2013-02-08  
   planetary ephem.      DE405  
   SB-pert. ephem.      SB405-CPV-2  
   condition code      0  
   fit RMS      .99514  
   data source      ORB  
   producer      Ryan S. Park  
   solution date      2013-Mar-03 19:29:35  

Additional Information
 Earth MOID = .417969 AU 
 T_jup = 2.663 
[ show covariance matrix ]

Ephemeris | Orbit Diagram | Orbital Elements | Physical Parameters | Close-Approach Data ]

Physical Parameter Table
Parameter Symbol Value Units Sigma Reference Notes
comet total magnitude M1 15.5 mag n/a MPEC 2005-N28  
comet total magnitude slope K1 10.0   n/a MPEC 2005-N28  

[ show close-approach data ]
Alternate Designations
 Perihelion 
Year
(est.)
 New-Style 
Desig
Roman
 Numeral 
Year/
 Letter 
 2005.9   168P/2005 N2       
 1999.0   168P/1998 W2       
Ephemeris | Orbit Diagram | Orbital Elements | Physical Parameters | Close-Approach Data ]
ABOUT SSD CREDITS/AWARDS PRIVACY/COPYRIGHT GLOSSARY LINKS
FirstGov 2013-May-22 13:30 UT
(server date/time)  
NASA Home Page
Site Manager:   Donald K. Yeomans
Webmaster  Alan B. Chamberlin